Temperature
16 16 16 16 16 16 16 16 16 16 16 16 16 16 16 16 16 16 17 17 17 17 17 17 17 17 17 17 17 17 17 17 17 17 17 16 16 16 16 16 16 16 16
16 16 15 15 15 15 15 15 15 15 15 15 15 15 16 16 16 16 16 16 17 17 17 17 17 17 17 17 17 17 17 17 17 17 17 16 16 16 16 16 16 16 16
15 15 15 15 15 15 15 15 15 15 15 15 15 15 15 15 16 16 16 16 16 17 17 17 16 16 16 16 16 16 16 16 16 17 17 16 16 16 16 16 16 16 16
15 15 15 15 14 14 14 14 15 15 15 15 15 15 15 15 15 15 16 16 16 16 16 16 16 16 16 16 16 16 16 16 16 16 16 16 16 16 16 16 16 16 16
14 14 14 14 14 14 14 14 14 14 15 15 15 15 15 15 15 15 15 15 16 16 16 16 16 16 16 16 16 16 16 16 16 16 16 16 16 16 16 16 16 16 16
14 14 14 14 14 14 14 13 13 13 14 14 15 15 15 15 15 15 15 16 15 15 16 16 16 16 16 16 16 16 16 16 16 16 16 16 16 16 16 16 16 16 16
14 14 14 13 13 13 13 13 13 14 14 14 15 15 15 15 15 15 15 15 15 15 15 15 15 15 16 16 16 16 16 16 16 16 16 16 16 16 16 16 16 16 16
14 14 14 14 13 13 13 13 13 14 14 14 15 16 17 16 14 15 15 15 15 15 15 15 15 15 15 15 15 16 16 16 15 16 16 16 16 16 16 16 16 16 16
14 14 13 13 13 13 13 13 12 13 14 14 14 15 17 18 16 15 14 14 14 15 15 15 15 15 15 15 15 15 15 15 15 15 15 16 16 16 16 16 16 16 16
14 14 13 13 13 13 13 13 13 13 13 14 14 13 14 14 15 16 15 15 14 14 14 15 15 15 15 15 15 15 15 15 15 15 15 15 15 16 16 16 16 16 16
14 14 13 13 13 13 13 12 12 12 13 13 14 14 14 14 14 15 16 15 15 15 14 14 14 14 14 14 14 15 15 15 15 15 15 15 15 15 15 15 15 16 16
14 14 13 13 13 13 12 12 12 12 12 12 13 13 14 14 15 15 15 15 15 15 14 14 14 14 14 14 14 14 15 15 15 15 15 15 15 15 15 15 15 15 15
14 14 13 13 13 12 12 12 12 12 12 12 12 12 13 13 13 14 14 15 15 15 14 14 14 13 14 13 13 14 14 14 14 15 15 15 15 15 15 15 15 15 15
15 14 13 13 13 13 12 12 12 12 12 12 12 12 12 13 13 13 13 14 15 15 15 14 14 13 13 13 13 13 13 13 14 14 14 14 15 15 15 15 15 15 15
14 14 14 13 13 13 12 12 12 12 12 12 12 12 12 13 12 12 12 13 13 15 15 14 13 13 12 12 12 12 12 12 13 13 14 14 14 14 14 14 14 15 15
15 14 14 13 13 13 13 12 12 12 12 12 12 11 12 12 12 12 12 12 12 13 14 14 13 13 12 12 12 11 12 12 13 13 13 13 13 13 14 14 14 14 14
15 15 14 14 13 13 13 13 12 12 12 12 12 12 12 11 12 12 12 12 12 12 13 13 13 13 11 11 11 11 11 12 12 12 13 13 13 13 13 13 13 14 14
15 15 14 14 14 13 13 13 12 12 12 12 12 12 12 12 11 12 12 12 12 12 12 12 12 12 12 11 11 11 11 12 12 12 12 12 13 13 13 13 13 13 13
16 15 15 15 14 14 14 13 13 13 13 12 12 12 12 12 11 12 11 12 12 12 11 12 12 12 12 12 11 11 11 11 12 12 12 12 12 12 13 13 13 13 13
16 16 16 15 15 14 14 14 14 13 13 13 13 12 12 12 12 11 11 11 11 11 11 11 12 12 12 12 11 11 12 12 12 12 12 12 12 12 12 12 12 13 13
16 16 16 15 15 15 14 14 14 14 13 13 13 13 13 13 12 12 12 12 11 11 12 12 12 12 12 12 12 12 12 12 12 12 12 12 12 12 12 12 12 12 12
17 16 16 16 15 15 15 15 15 14 13 13 13 13 13 13 13 13 13 12 12 11 11 11 12 12 12 12 11 11 11 12 12 12 11 11 12 12 12 12 12 11 12
17 17 16 16 16 16 16 16 15 15 14 13 13 13 13 13 13 12 12 12 12 12 12 11 11 11 11 11 11 11 11 11 11 11 11 11 11 11 12 12 11 11 11
17 16 16 16 16 16 16 16 15 15 14 14 14 13 13 13 13 12 12 11 11 11 11 11 11 11 10 10 10 10 10 10 10 10 10 10 11 11 12 12 11 11 11
16 16 16 16 16 16 16 16 15 14 14 14 14 13 13 13 13 13 12 12 11 11 11 11 11 11 11 11 10 9 10 10 11 11 11 11 11 11 11 11 11 11 11
16 16 15 15 15 15 15 15 15 14 13 13 13 13 13 13 13 13 12 12 11 11 11 11 11 11 11 11 10 10 9 10 11 11 11 11 11 11 11 11 11 11 11
Wind_Speed
2 2 2 3 3 2 1 1 1 1 2 3 3 3 4 4 5 5 3 6 6 8 10 11 12 13 14 14 14 14 14 14 13 13 13 13 13 12 11 11 10 10 10
3 2 2 2 2 2 3 2 2 1 2 2 3 3 4 4 4 5 5 5 8 8 9 11 13 14 15 16 16 16 15 15 15 15 14 14 14 14 13 12 11 11 11
4 2 3 2 3 2 1 1 2 2 2 3 3 3 4 4 4 4 6 5 6 9 10 10 12 14 15 16 17 17 17 16 16 16 16 16 16 15 15 14 13 12 12
3 2 3 3 3 2 2 1 2 3 2 3 3 3 3 3 4 5 6 6 6 7 9 11 11 13 15 16 16 17 18 18 17 17 17 17 17 17 17 16 15 14 14
2 2 3 4 2 2 3 3 3 4 2 3 3 2 3 3 3 4 5 6 6 7 7 8 10 12 14 15 15 16 17 18 18 18 18 17 18 19 19 18 18 17 16
3 2 3 3 2 3 3 3 3 3 3 3 3 1 2 1 2 2 4 4 4 6 7 6 8 11 14 14 14 15 17 18 18 19 19 19 19 20 20 21 20 20 19
3 1 3 3 2 3 4 3 3 1 2 3 3 2 2 1 1 0 2 2 1 2 3 5 7 7 10 14 14 14 15 16 17 18 19 19 20 20 21 22 22 22 21
3 3 2 1 2 2 3 3 3 3 2 3 4 3 3 4 2 1 1 1 2 1 0 1 2 4 7 8 9 12 14 16 16 16 17 19 20 21 21 22 23 24 23
4 2 2 1 1 1 3 3 3 3 3 2 3 4 3 1 1 3 1 2 2 2 1 1 0 0 3 5 5 7 8 10 12 14 16 18 21 22 23 23 23 24 25
6 5 4 2 1 1 1 1 3 2 3 2 1 2 3 4 4 1 3 2 1 2 3 2 1 1 1 2 1 1 2 5 8 11 14 16 17 19 22 23 24 24 25
7 6 5 4 3 1 1 1 1 2 2 3 2 1 1 1 4 5 2 2 2 1 2 2 2 2 2 1 1 3 1 2 5 7 9 13 15 17 20 22 23 23 24
6 7 7 5 5 3 2 2 1 1 2 2 3 3 3 3 3 4 5 5 4 2 2 2 3 2 2 2 3 6 4 2 2 4 6 9 12 15 17 20 22 23 23
6 7 7 6 5 4 4 3 3 2 2 2 3 3 3 3 4 4 5 5 5 4 3 5 2 3 3 3 1 5 1 1 3 4 5 7 8 10 13 16 19 21 23
5 6 7 7 6 6 6 5 4 4 3 4 4 3 4 4 4 4 5 6 7 5 4 3 3 4 3 5 3 6 5 1 3 6 6 7 7 8 10 11 14 17 20
6 8 8 7 7 7 6 6 5 4 4 5 5 5 5 4 5 5 5 5 6 7 5 2 4 2 5 5 4 7 8 2 5 8 8 8 8 8 9 10 11 13 17
7 8 9 8 8 8 7 7 6 5 5 6 5 5 6 6 4 5 6 6 6 7 8 5 5 6 5 9 5 8 10 8 12 11 9 8 9 10 10 11 11 12 13
9 9 9 9 9 9 8 8 8 6 7 7 7 7 7 7 6 6 6 6 7 7 9 9 7 6 6 9 8 9 11 11 11 13 10 9 10 11 12 12 13 13 14
10 10 10 10 10 9 9 9 9 8 8 8 8 8 8 7 8 8 7 8 8 8 9 11 9 9 8 8 8 9 11 11 11 8 11 11 13 13 13 13 14 14 15
11 11 11 11 11 10 10 10 10 9 9 9 9 9 9 9 9 9 8 9 8 8 9 10 11 9 9 8 8 10 11 9 13 12 13 16 17 16 15 15 15 16 16
12 12 12 12 11 11 11 11 10 10 10 10 10 10 10 11 11 10 9 10 10 10 10 11 11 10 9 9 8 10 10 9 9 10 10 11 13 16 18 18 18 18 18
13 12 12 12 12 11 11 12 11 11 11 11 11 12 12 11 10 10 10 9 9 10 10 10 10 10 9 8 9 9 9 9 9 9 10 10 11 13 15 20 23 22 20
12 12 13 13 13 12 10 11 12 12 12 12 12 12 12 13 14 15 14 13 12 12 12 11 11 11 11 10 9 10 10 11 11 8 8 10 10 11 11 14 13 16 19
13 13 13 14 14 14 12 14 15 14 14 13 13 13 12 12 13 14 16 19 18 19 17 15 15 14 13 11 11 12 11 12 12 10 10 12 11 12 12 14 12 13 16
12 12 13 14 14 14 14 16 15 15 16 16 15 15 15 15 14 15 15 15 15 16 17 17 16 16 15 13 11 12 13 13 14 13 12 14 13 13 12 13 14 18 20
11 12 12 13 14 14 13 16 15 13 14 17 17 17 17 17 16 14 16 17 17 16 17 19 19 17 15 13 11 12 13 13 14 12 11 12 13 13 12 13 13 18 22
10 11 12 12 13 14 12 14 14 12 14 15 15 16 18 20 17 16 17 17 18 17 16 14 16 18 19 19 18 17 16 15 15 14 11 11 12 12 12 12 11 10 14
Wind_Direction
39 33 25 357 338 343 295 294 303 311 271 249 255 243 252 260 272 264 206 162 208 224 224 217 213 212 211 212 212 207 204 201 196 192 191 189 186 185 185 185 183 180 179
54 35 54 15 3 349 359 332 335 296 282 284 263 255 255 254 251 265 262 199 197 215 228 223 218 215 216 217 218 214 211 210 205 199 197 197 194 192 193 193 192 189 187
68 40 42 22 22 14 346 320 314 291 275 261 256 258 258 262 268 263 265 265 230 205 210 218 222 217 218 219 220 219 217 215 213 206 204 203 201 200 198 198 198 197 195
70 34 34 40 15 355 355 346 313 302 301 288 279 273 262 252 259 265 260 251 258 252 208 200 217 218 219 221 222 222 219 217 217 214 210 209 208 207 206 204 203 202 202
95 51 48 45 0 13 4 343 16 324 313 308 276 242 269 269 267 263 268 263 254 253 249 193 209 217 218 221 224 223 222 220 219 220 217 216 214 213 212 210 208 207 207
110 54 82 53 10 36 31 26 6 360 326 313 296 304 285 288 276 299 279 266 253 246 239 234 220 211 208 215 222 224 224 224 222 223 223 222 220 218 216 215 213 211 210
126 67 66 86 20 50 25 11 345 346 344 329 275 229 190 185 64 1 330 314 295 264 248 236 235 227 204 205 215 222 229 232 229 228 229 229 227 223 221 219 218 216 214
161 147 79 90 67 69 53 23 3 337 7 0 317 280 217 177 178 64 34 44 9 342 263 246 243 229 236 215 200 209 224 232 233 228 230 233 232 229 226 225 223 221 218
179 156 153 62 68 342 54 22 359 1 355 30 5 324 303 308 170 151 81 64 42 18 32 51 25 269 238 226 216 196 216 227 234 230 230 233 235 232 228 229 228 225 222
190 184 182 172 214 23 72 334 48 345 326 351 73 16 354 349 306 226 184 144 76 26 19 348 17 54 331 247 167 126 216 233 236 235 236 237 237 237 234 231 230 229 227
197 197 194 193 200 217 95 25 34 338 334 335 340 334 324 267 274 292 284 283 252 269 351 316 343 351 1 341 262 63 43 253 244 241 243 243 239 237 237 234 233 232 232
198 196 200 202 210 210 188 211 251 234 336 342 319 315 303 301 300 295 288 274 281 273 304 304 284 306 313 313 47 40 20 347 280 259 252 249 244 235 235 236 235 235 234
198 191 199 201 210 205 210 217 226 274 255 269 278 294 305 303 307 299 296 298 294 277 259 256 255 278 280 302 350 10 294 346 318 295 276 261 254 244 238 237 237 238 238
207 183 195 203 209 209 214 214 234 226 236 253 263 283 282 278 288 286 293 301 294 283 244 253 277 259 288 288 6 315 268 187 308 303 290 276 264 255 246 242 242 241 239
201 192 201 204 207 211 220 225 239 238 235 247 247 232 255 269 264 275 279 285 294 297 295 245 260 255 274 288 308 291 287 262 287 284 280 277 274 268 261 254 249 247 243
204 200 203 207 210 211 215 227 234 222 236 243 257 272 267 268 264 263 267 271 274 283 290 294 280 284 308 300 267 279 278 264 254 251 258 268 270 267 264 260 257 254 250
200 204 207 210 213 215 216 221 240 232 236 243 244 244 246 265 267 267 260 263 265 268 276 282 282 276 270 278 289 284 278 272 261 216 229 256 267 266 264 261 258 256 253
205 205 209 213 217 218 218 223 232 234 236 242 244 246 248 244 244 260 265 264 265 267 270 279 284 281 267 266 269 274 275 271 275 221 216 246 257 259 258 259 257 254 253
208 210 211 216 220 222 222 226 231 237 240 243 245 245 246 246 246 251 255 262 264 259 260 270 274 276 274 268 270 267 266 264 270 256 224 231 239 245 249 253 254 253 252
210 212 215 219 222 225 226 228 230 235 240 244 245 245 245 242 242 246 249 252 259 267 264 264 270 271 266 262 260 268 269 254 259 270 266 254 237 233 241 244 246 247 249
213 215 219 222 225 228 228 226 231 235 238 243 243 242 243 241 246 247 256 257 256 258 265 265 267 270 268 268 265 268 272 276 266 263 267 264 250 245 237 233 234 238 239
216 218 222 226 228 232 211 209 232 245 243 243 246 245 244 231 230 228 242 253 260 259 263 271 272 272 273 272 271 274 276 274 274 265 264 268 267 264 261 258 241 221 226
215 220 226 230 234 235 210 206 217 241 249 248 248 247 249 244 225 235 228 227 238 243 248 257 267 271 274 270 273 271 268 273 279 285 279 273 269 266 263 260 233 226 234
220 224 228 232 237 236 211 211 213 233 249 250 248 247 247 251 243 238 243 241 240 236 230 234 247 256 260 267 264 264 273 271 266 259 257 266 270 269 268 265 237 223 233
228 232 234 236 239 240 215 210 211 240 245 248 249 248 246 247 240 225 241 249 251 250 241 233 239 248 259 265 262 264 264 266 268 267 251 256 266 270 270 267 255 223 226
239 244 245 243 245 248 229 210 208 241 250 253 250 249 243 241 244 214 233 244 249 250 253 245 229 239 246 245 235 241 252 259 265 268 262 258 264 269 273 269 263 251 236
Height
1574 1574 1572 1572 1573 1573 1573 1572 1572 1572 1572 1573 1573 1574 1575 1575 1576 1578 1578 1577 1579 1580 1581 1583 1584 1585 1586 1587 1588 1590 1591 1593 1594 1595 1596 1598 1599 1600 1601 1602 1603 1604 1605
1572 1572 1572 1571 1572 1571 1571 1571 1571 1571 1572 1572 1572 1572 1573 1574 1574 1574 1576 1577 1577 1578 1579 1580 1581 1583 1584 1585 1587 1588 1590 1591 1593 1594 1595 1597 1598 1599 1601 1602 1603 1604 1605
1572 1572 1572 1571 1571 1570 1570 1570 1570 1571 1571 1571 1571 1571 1572 1572 1573 1573 1574 1575 1576 1576 1577 1578 1579 1580 1581 1583 1584 1586 1588 1590 1591 1593 1594 1596 1597 1598 1600 1601 1602 1603 1605
1571 1571 1572 1571 1570 1570 1570 1570 1570 1570 1570 1570 1570 1570 1570 1570 1571 1571 1572 1572 1573 1574 1575 1574 1576 1577 1578 1580 1581 1583 1585 1587 1589 1591 1593 1594 1595 1597 1598 1600 1601 1602 1604
1571 1571 1571 1570 1570 1570 1570 1570 1570 1569 1569 1569 1569 1569 1569 1569 1569 1570 1570 1570 1571 1571 1572 1572 1573 1574 1575 1576 1578 1580 1582 1584 1586 1588 1590 1591 1593 1595 1596 1598 1599 1601 1602
1570 1571 1571 1569 1570 1570 1570 1569 1568 1568 1568 1568 1569 1569 1568 1568 1568 1568 1569 1569 1568 1569 1570 1570 1570 1571 1572 1573 1575 1576 1578 1580 1582 1584 1586 1588 1590 1592 1594 1595 1597 1599 1600
1570 1570 1571 1569 1570 1570 1569 1569 1568 1569 1568 1567 1568 1568 1568 1568 1568 1567 1567 1568 1567 1567 1567 1568 1568 1569 1569 1570 1571 1573 1575 1576 1578 1580 1582 1584 1586 1588 1590 1592 1594 1596 1598
1570 1571 1570 1571 1570 1569 1568 1568 1567 1568 1568 1567 1568 1568 1567 1568 1567 1567 1567 1566 1566 1566 1567 1566 1566 1567 1568 1569 1569 1570 1571 1572 1574 1576 1578 1580 1582 1584 1586 1589 1591 1593 1595
1569 1569 1569 1570 1569 1570 1570 1568 1567 1568 1568 1568 1567 1568 1567 1565 1567 1567 1566 1566 1565 1565 1566 1566 1565 1565 1566 1566 1567 1567 1568 1569 1570 1572 1574 1576 1578 1580 1582 1584 1586 1588 1590
1568 1569 1569 1569 1569 1570 1568 1569 1568 1568 1567 1568 1568 1567 1567 1567 1567 1566 1566 1566 1565 1565 1565 1565 1565 1564 1564 1565 1564 1564 1565 1566 1567 1568 1570 1572 1574 1575 1577 1579 1581 1583 1586
1567 1567 1568 1568 1568 1568 1568 1567 1567 1567 1568 1568 1568 1568 1567 1567 1567 1566 1565 1566 1565 1565 1564 1564 1564 1564 1563 1563 1563 1562 1563 1564 1564 1565 1566 1567 1569 1570 1572 1574 1576 1578 1580
1566 1566 1566 1566 1567 1568 1567 1566 1566 1566 1566 1565 1566 1567 1567 1567 1566 1566 1565 1564 1564 1564 1562 1562 1562 1562 1562 1562 1561 1560 1560 1561 1561 1562 1563 1563 1564 1565 1567 1568 1570 1572 1574
1564 1564 1565 1565 1566 1566 1565 1565 1565 1566 1565 1565 1565 1565 1566 1566 1565 1565 1564 1563 1562 1562 1560 1561 1560 1560 1560 1560 1558 1557 1557 1558 1558 1558 1559 1559 1560 1561 1561 1562 1564 1566 1567
1563 1562 1562 1563 1564 1564 1564 1564 1565 1565 1564 1564 1564 1563 1563 1564 1564 1563 1563 1563 1561 1560 1559 1559 1559 1558 1557 1557 1555 1554 1555 1554 1554 1554 1555 1555 1555 1556 1557 1557 1558 1559 1561
1560 1560 1560 1561 1562 1562 1562 1562 1564 1563 1562 1562 1563 1562 1562 1563 1562 1562 1561 1561 1561 1558 1557 1556 1556 1556 1555 1554 1552 1551 1551 1550 1550 1550 1550 1550 1551 1551 1552 1552 1553 1554 1555
1556 1557 1558 1559 1559 1560 1560 1560 1561 1561 1560 1560 1560 1560 1559 1561 1560 1559 1559 1559 1558 1558 1556 1555 1554 1554 1552 1550 1549 1547 1547 1545 1545 1545 1545 1545 1546 1546 1546 1547 1547 1548 1549
1552 1554 1555 1556 1557 1557 1558 1558 1559 1559 1558 1558 1558 1558 1557 1556 1557 1557 1557 1556 1555 1555 1553 1552 1551 1550 1547 1546 1546 1544 1543 1542 1542 1540 1540 1540 1540 1540 1541 1541 1542 1543 1543
1549 1551 1552 1553 1554 1555 1555 1555 1555 1556 1556 1556 1556 1555 1555 1554 1553 1553 1553 1553 1552 1551 1550 1548 1547 1546 1545 1543 1541 1539 1539 1539 1538 1537 1535 1534 1534 1534 1535 1535 1536 1536 1537
1546 1548 1549 1550 1550 1551 1552 1552 1552 1553 1553 1553 1552 1552 1551 1551 1550 1550 1549 1549 1549 1548 1546 1545 1543 1542 1541 1540 1538 1536 1535 1533 1533 1532 1530 1529 1528 1528 1528 1529 1529 1530 1530
1542 1544 1545 1546 1547 1548 1548 1549 1549 1549 1549 1548 1548 1547 1547 1546 1546 1545 1545 1544 1544 1543 1542 1540 1539 1538 1537 1535 1534 1532 1531 1530 1529 1528 1527 1525 1523 1522 1522 1522 1522 1523 1523
1538 1540 1541 1542 1543 1543 1544 1545 1545 1545 1544 1544 1543 1542 1542 1541 1541 1540 1541 1541 1540 1539 1538 1537 1535 1534 1533 1532 1530 1529 1527 1526 1524 1523 1522 1521 1520 1518 1517 1515 1515 1515 1516
1534 1535 1536 1537 1538 1539 1539 1539 1539 1540 1539 1539 1538 1537 1537 1535 1534 1534 1534 1534 1533 1533 1533 1532 1531 1529 1528 1527 1526 1524 1523 1521 1520 1519 1517 1515 1515 1513 1512 1511 1510 1508 1508
1529 1530 1531 1532 1532 1533 1533 1534 1534 1534 1533 1533 1532 1531 1531 1531 1529 1528 1527 1526 1526 1525 1525 1525 1524 1523 1523 1522 1520 1519 1518 1516 1514 1514 1512 1510 1509 1507 1506 1505 1503 1502 1501
1523 1524 1525 1525 1526 1526 1527 1527 1527 1527 1526 1526 1525 1524 1524 1523 1523 1522 1522 1521 1519 1518 1517 1516 1515 1515 1515 1515 1514 1513 1511 1509 1507 1506 1505 1503 1502 1501 1499 1498 1496 1494 1493
1517 1518 1519 1519 1519 1519 1520 1520 1520 1519 1518 1517 1517 1517 1516 1515 1514 1514 1514 1513 1512 1511 1511 1509 1508 1507 1507 1507 1507 1506 1506 1504 1502 1501 1500 1498 1496 1494 1493 1491 1489 1487 1485
1511 1512 1513 1512 1512 1512 1512 1512 1512 1511 1511 1510 1509 1508 1507 1507 1506 1506 1505 1505 1504 1503 1504 1503 1500 1499 1498 1497 1497 1497 1497 1497 1495 1493 1493 1492 1490 1488 1486 1484 1483 1481 1479